QPF
0.00 0.00 0.00 0.00 0.00 0.00 0.00 0.00 0.00 0.00 0.00 0.00 0.00 0.00 0.00 0.00 0.00 0.00 0.00 0.00 0.00 0.00 0.00 0.00 0.00 0.00 0.00 0.00 0.00 0.00 0.00 0.00 0.00 0.00 0.00 0.00 0.00 0.00 0.00 0.00 0.00 0.00 0.00 0.00 0.00
0.00 0.00 0.00 0.00 0.00 0.00 0.00 0.00 0.00 0.00 0.00 0.00 0.00 0.00 0.00 0.00 0.00 0.00 0.00 0.00 0.00 0.00 0.00 0.00 0.00 0.00 0.00 0.00 0.00 0.00 0.00 0.00 0.00 0.00 0.00 0.00 0.00 0.00 0.00 0.00 0.00 0.00 0.00 0.00 0.00
0.00 0.00 0.00 0.00 0.00 0.00 0.00 0.00 0.00 0.00 0.00 0.00 0.00 0.00 0.00 0.00 0.00 0.00 0.00 0.00 0.00 0.00 0.00 0.00 0.00 0.00 0.00 0.00 0.00 0.00 0.00 0.00 0.00 0.00 0.00 0.00 0.00 0.00 0.00 0.00 0.00 0.00 0.00 0.00 0.00
0.00 0.00 0.00 0.00 0.00 0.00 0.00 0.00 0.00 0.00 0.00 0.00 0.00 0.00 0.00 0.00 0.00 0.00 0.00 0.00 0.00 0.00 0.00 0.00 0.00 0.00 0.00 0.00 0.00 0.00 0.00 0.00 0.00 0.00 0.00 0.00 0.00 0.00 0.00 0.00 0.00 0.00 0.00 0.00 0.00
0.00 0.00 0.00 0.00 0.00 0.00 0.00 0.00 0.00 0.00 0.00 0.00 0.00 0.00 0.00 0.00 0.00 0.00 0.00 0.00 0.00 0.00 0.00 0.00 0.00 0.00 0.00 0.00 0.00 0.00 0.00 0.00 0.00 0.00 0.00 0.00 0.00 0.00 0.00 0.00 0.00 0.00 0.00 0.00 0.00
0.00 0.00 0.00 0.00 0.00 0.00 0.00 0.00 0.00 0.00 0.00 0.00 0.00 0.00 0.00 0.00 0.00 0.00 0.00 0.00 0.00 0.00 0.00 0.00 0.00 0.00 0.00 0.00 0.00 0.00 0.00 0.00 0.00 0.00 0.00 0.00 0.00 0.00 0.00 0.00 0.00 0.00 0.00 0.00 0.00
0.00 0.00 0.00 0.00 0.00 0.00 0.00 0.00 0.00 0.00 0.00 0.00 0.00 0.00 0.00 0.00 0.00 0.00 0.00 0.00 0.00 0.00 0.00 0.00 0.00 0.00 0.00 0.00 0.00 0.00 0.00 0.00 0.00 0.00 0.00 0.00 0.00 0.00 0.00 0.00 0.00 0.00 0.00 0.00 0.00
0.00 0.00 0.00 0.00 0.00 0.00 0.00 0.00 0.00 0.00 0.00 0.00 0.00 0.00 0.00 0.00 0.00 0.00 0.00 0.00 0.00 0.00 0.00 0.00 0.00 0.00 0.00 0.00 0.00 0.00 0.00 0.00 0.00 0.00 0.00 0.00 0.00 0.00 0.00 0.00 0.00 0.00 0.00 0.00 0.00
0.00 0.00 0.00 0.00 0.00 0.00 0.00 0.00 0.00 0.00 0.00 0.00 0.00 0.00 0.00 0.00 0.00 0.00 0.00 0.00 0.00 0.00 0.00 0.00 0.00 0.00 0.00 0.00 0.00 0.00 0.00 0.00 0.00 0.00 0.00 0.00 0.00 0.00 0.00 0.00 0.00 0.00 0.00 0.00 0.00
0.00 0.00 0.00 0.00 0.00 0.00 0.00 0.00 0.00 0.00 0.00 0.00 0.00 0.00 0.00 0.00 0.00 0.00 0.00 0.00 0.00 0.00 0.00 0.00 0.00 0.00 0.00 0.00 0.00 0.00 0.00 0.00 0.00 0.00 0.00 0.00 0.00 0.00 0.00 0.00 0.00 0.00 0.00 0.00 0.00
0.00 0.00 0.00 0.00 0.00 0.00 0.00 0.00 0.00 0.00 0.00 0.00 0.00 0.00 0.00 0.00 0.00 0.00 0.00 0.00 0.00 0.00 0.00 0.00 0.00 0.00 0.00 0.00 0.00 0.00 0.00 0.00 0.00 0.00 0.00 0.00 0.00 0.00 0.00 0.00 0.00 0.00 0.00 0.00 0.00
0.00 0.00 0.00 0.00 0.00 0.00 0.00 0.00 0.00 0.00 0.00 0.00 0.00 0.00 0.00 0.00 0.00 0.00 0.00 0.00 0.00 0.00 0.00 0.00 0.00 0.00 0.00 0.00 0.00 0.00 0.00 0.00 0.00 0.00 0.00 0.00 0.00 0.00 0.00 0.00 0.00 0.00 0.00 0.00 0.00
0.00 0.00 0.00 0.00 0.00 0.01 0.00 0.00 0.00 0.00 0.00 0.00 0.00 0.00 0.00 0.00 0.00 0.00 0.00 0.00 0.00 0.00 0.00 0.00 0.00 0.00 0.00 0.00 0.00 0.00 0.00 0.00 0.00 0.00 0.00 0.00 0.00 0.00 0.00 0.00 0.00 0.00 0.00 0.00 0.00
0.00 0.00 0.00 0.00 0.02 0.00 0.00 0.00 0.00 0.00 0.00 0.00 0.00 0.00 0.00 0.00 0.00 0.00 0.00 0.00 0.00 0.00 0.00 0.00 0.00 0.00 0.00 0.00 0.00 0.00 0.00 0.00 0.00 0.00 0.00 0.00 0.00 0.00 0.00 0.00 0.00 0.00 0.00 0.00 0.00
0.00 0.00 0.00 0.00 0.00 0.00 0.00 0.00 0.00 0.00 0.00 0.00 0.00 0.00 0.00 0.00 0.00 0.00 0.00 0.00 0.00 0.00 0.00 0.00 0.00 0.00 0.00 0.00 0.00 0.00 0.00 0.00 0.00 0.00 0.00 0.00 0.00 0.00 0.00 0.00 0.00 0.00 0.00 0.00 0.00
0.00 0.00 0.00 0.01 0.00 0.00 0.00 0.00 0.00 0.00 0.00 0.00 0.00 0.00 0.00 0.00 0.00 0.00 0.00 0.00 0.00 0.00 0.00 0.00 0.00 0.00 0.00 0.00 0.00 0.00 0.00 0.00 0.00 0.00 0.00 0.00 0.00 0.00 0.00 0.00 0.00 0.00 0.00 0.00 0.00
0.00 0.00 0.00 0.01 0.01 0.00 0.00 0.00 0.03 0.02 0.00 0.00 0.00 0.00 0.00 0.00 0.00 0.00 0.00 0.00 0.00 0.00 0.00 0.00 0.00 0.00 0.00 0.00 0.00 0.00 0.00 0.00 0.00 0.00 0.00 0.00 0.00 0.00 0.00 0.00 0.00 0.00 0.00 0.00 0.00
0.01 0.01 0.01 0.01 0.00 0.02 0.04 0.07 0.08 0.00 0.00 0.00 0.00 0.00 0.00 0.00 0.00 0.00 0.00 0.00 0.00 0.00 0.00 0.00 0.00 0.00 0.00 0.00 0.00 0.00 0.00 0.00 0.00 0.00 0.00 0.00 0.00 0.00 0.00 0.00 0.00 0.00 0.00 0.00 0.00
0.13 0.13 0.12 0.02 0.02 0.06 0.21 0.29 0.15 0.00 0.00 0.00 0.00 0.00 0.00 0.00 0.00 0.00 0.00 0.00 0.00 0.00 0.00 0.00 0.00 0.00 0.00 0.00 0.00 0.00 0.00 0.00 0.00 0.00 0.00 0.00 0.00 0.00 0.00 0.00 0.00 0.00 0.00 0.00 0.00
0.67 0.73 0.34 0.04 0.04 0.23 0.63 0.51 0.08 0.00 0.00 0.00 0.00 0.00 0.00 0.00 0.00 0.00 0.00 0.00 0.00 0.00 0.00 0.00 0.00 0.00 0.00 0.00 0.00 0.00 0.00 0.00 0.00 0.00 0.00 0.00 0.00 0.00 0.00 0.00 0.00 0.00 0.00 0.00 0.00
0.80 0.97 0.55 0.07 0.21 0.75 0.96 0.58 0.07 0.00 0.00 0.00 0.00 0.00 0.00 0.00 0.00 0.00 0.00 0.00 0.00 0.00 0.00 0.00 0.00 0.00 0.00 0.00 0.00 0.00 0.00 0.00 0.00 0.00 0.00 0.00 0.00 0.00 0.00 0.00 0.00 0.00 0.00 0.00 0.00
0.77 0.89 0.49 0.15 0.71 0.88 0.64 0.20 0.01 0.00 0.00 0.00 0.00 0.00 0.00 0.00 0.00 0.00 0.00 0.00 0.00 0.00 0.00 0.00 0.00 0.00 0.00 0.00 0.00 0.00 0.00 0.00 0.00 0.00 0.00 0.00 0.00 0.00 0.00 0.00 0.00 0.00 0.00 0.00 0.00
0.52 0.45 0.39 0.45 0.42 0.61 0.32 0.06 0.00 0.00 0.00 0.00 0.00 0.00 0.00 0.00 0.00 0.00 0.00 0.00 0.00 0.00 0.00 0.00 0.00 0.00 0.00 0.00 0.00 0.00 0.00 0.00 0.00 0.00 0.00 0.00 0.00 0.00 0.00 0.00 0.00 0.00 0.00 0.00 0.00
0.58 0.48 0.40 0.54 0.52 0.24 0.17 0.12 0.07 0.02 0.00 0.00 0.00 0.01 0.01 0.00 0.00 0.00 0.00 0.00 0.00 0.00 0.00 0.00 0.00 0.00 0.00 0.00 0.00 0.00 0.00 0.00 0.00 0.00 0.00 0.00 0.00 0.00 0.00 0.00 0.00 0.00 0.00 0.00 0.00
0.52 0.42 0.17 0.26 0.28 0.20 0.15 0.26 0.13 0.06 0.04 0.02 0.03 0.01 0.01 0.01 0.01 0.01 0.00 0.00 0.00 0.00 0.00 0.01 0.01 0.00 0.00 0.00 0.00 0.00 0.00 0.00 0.00 0.00 0.00 0.00 0.00 0.00 0.00 0.00 0.00 0.00 0.00 0.00 0.00
0.57 0.33 0.10 0.07 0.05 0.12 0.23 0.40 0.28 0.13 0.10 0.08 0.07 0.03 0.01 0.01 0.02 0.03 0.01 0.01 0.01 0.01 0.01 0.04 0.05 0.00 0.00 0.00 0.00 0.00 0.00 0.00 0.00 0.00 0.00 0.00 0.00 0.00 0.00 0.00 0.00 0.00 0.00 0.00 0.00
0.28 0.20 0.09 0.09 0.08 0.16 0.17 0.16 0.13 0.14 0.24 0.15 0.12 0.14 0.19 0.20 0.17 0.13 0.13 0.13 0.13 0.10 0.11 0.15 0.14 0.08 0.09 0.02 0.02 0.03 0.00 0.00 0.00 0.00 0.00 0.00 0.00 0.00 0.00 0.00 0.00 0.00 0.00 0.00 0.00
MSLP
1019.76 1019.83 1019.80 1019.81 1019.76 1019.68 1019.48 1019.34 1019.18 1019.07 1018.89 1018.82 1018.56 1018.26 1017.95 1017.70 1017.26 1017.25 1016.93 1016.55 1016.34 1016.29 1016.29 1016.35 1016.46 1016.81 1017.09 1018.13 1018.63 1019.26 1020.24 1020.90 1020.43 1020.15 1019.47 1019.18 1018.98 1018.98 1019.12 1019.22 1019.41 1019.85 1021.08 1022.45 1022.30
1019.69 1019.80 1019.85 1019.78 1019.76 1019.68 1019.57 1019.38 1019.25 1019.04 1018.85 1018.62 1018.25 1018.01 1017.80 1017.62 1017.44 1017.08 1016.69 1016.37 1016.25 1016.36 1016.43 1016.57 1016.91 1017.03 1017.90 1018.56 1018.99 1019.42 1020.36 1020.05 1019.66 1019.52 1019.39 1019.29 1019.19 1019.31 1019.61 1019.96 1020.24 1020.94 1021.99 1022.79 1022.66
1019.68 1019.76 1019.81 1019.80 1019.80 1019.72 1019.59 1019.40 1019.16 1019.04 1018.75 1018.45 1018.20 1017.95 1017.77 1017.60 1017.40 1016.89 1016.48 1016.34 1016.32 1016.35 1016.44 1016.73 1017.06 1017.38 1018.23 1018.67 1019.27 1019.50 1019.68 1019.54 1019.29 1019.24 1019.32 1019.44 1019.43 1019.59 1020.06 1020.86 1021.26 1022.07 1022.89 1023.43 1023.54
1019.60 1019.66 1019.72 1019.69 1019.71 1019.59 1019.50 1019.35 1019.08 1018.87 1018.63 1018.34 1018.10 1017.90 1017.58 1017.44 1017.48 1016.65 1016.41 1016.31 1016.41 1016.41 1016.57 1016.98 1017.39 1017.93 1018.60 1018.97 1019.21 1019.46 1019.47 1019.41 1019.20 1019.21 1019.39 1019.52 1019.59 1019.97 1020.59 1021.72 1022.33 1023.27 1024.02 1024.38 1024.45
1019.37 1019.42 1019.52 1019.51 1019.43 1019.42 1019.35 1019.22 1019.00 1018.67 1018.47 1018.26 1017.99 1017.77 1017.52 1017.56 1016.91 1016.44 1016.45 1016.44 1016.45 1016.55 1016.85 1017.21 1017.57 1018.12 1018.71 1019.07 1019.29 1019.43 1019.53 1019.51 1019.30 1019.31 1019.38 1019.62 1019.87 1020.30 1021.43 1022.66 1023.53 1024.21 1024.66 1025.04 1025.26
1019.04 1019.20 1019.25 1019.32 1019.31 1019.19 1019.21 1019.04 1018.91 1018.68 1018.38 1018.19 1018.01 1017.96 1017.92 1017.67 1016.52 1016.45 1016.45 1016.63 1016.63 1016.71 1017.09 1017.24 1017.61 1018.03 1018.80 1019.19 1019.42 1019.53 1019.61 1019.59 1019.29 1019.33 1019.36 1019.68 1020.16 1020.68 1022.27 1023.30 1024.22 1024.83 1025.51 1025.85 1025.83
1018.92 1018.94 1019.08 1019.17 1019.21 1019.13 1018.98 1018.92 1018.76 1018.61 1018.39 1018.13 1017.96 1018.04 1017.88 1017.03 1016.43 1016.51 1016.42 1016.74 1016.84 1016.84 1017.24 1017.40 1017.60 1018.09 1018.76 1019.48 1019.72 1019.83 1019.99 1019.69 1019.22 1019.28 1019.31 1019.60 1020.57 1021.00 1021.98 1023.36 1024.50 1025.32 1025.75 1025.96 1026.16
1018.68 1018.82 1018.89 1018.97 1018.97 1019.00 1018.90 1018.77 1018.58 1018.33 1018.25 1018.20 1018.16 1018.13 1017.41 1016.48 1016.54 1016.60 1016.66 1017.01 1017.06 1017.08 1017.32 1017.60 1017.67 1018.48 1019.16 1019.82 1020.32 1020.54 1020.59 1020.39 1019.37 1019.31 1019.33 1019.81 1020.38 1021.17 1022.19 1023.09 1024.54 1025.29 1025.91 1026.26 1026.51
1018.36 1018.46 1018.70 1018.72 1018.77 1018.84 1018.77 1018.64 1018.44 1018.28 1018.17 1018.23 1018.35 1018.11 1017.24 1016.59 1016.74 1016.70 1016.75 1017.10 1017.33 1017.54 1017.80 1017.88 1018.31 1019.58 1019.95 1020.55 1021.28 1021.52 1021.23 1020.89 1019.92 1019.39 1019.50 1019.86 1020.42 1021.27 1022.33 1023.35 1024.87 1025.77 1026.29 1026.56 1026.74
1017.92 1018.06 1018.31 1018.49 1018.60 1018.65 1018.63 1018.50 1018.35 1018.36 1018.32 1018.34 1018.26 1018.46 1017.04 1016.55 1016.64 1016.77 1016.91 1017.19 1017.64 1017.99 1018.40 1018.82 1019.77 1020.45 1020.99 1021.15 1021.41 1021.42 1021.58 1021.06 1020.48 1019.89 1019.86 1020.23 1020.60 1021.72 1022.67 1023.90 1025.29 1026.27 1026.84 1027.18 1027.22
1017.46 1017.69 1017.88 1018.23 1018.37 1018.51 1018.59 1018.59 1018.89 1018.77 1018.38 1017.14 1016.94 1016.71 1016.46 1016.74 1016.67 1016.94 1017.02 1017.38 1017.93 1018.57 1019.26 1019.84 1020.41 1020.39 1020.06 1020.29 1020.57 1020.87 1021.29 1021.04 1020.45 1020.10 1020.32 1020.56 1021.16 1021.49 1023.10 1024.36 1025.62 1026.60 1027.23 1027.62 1027.81
1016.85 1017.24 1017.57 1017.91 1018.20 1018.30 1018.50 1018.50 1017.84 1018.02 1017.53 1016.42 1016.57 1016.46 1016.13 1016.23 1016.86 1017.16 1017.14 1017.63 1018.30 1019.21 1019.85 1020.57 1020.22 1019.67 1020.05 1020.65 1020.89 1021.21 1021.55 1021.35 1020.86 1020.60 1020.95 1021.10 1021.63 1022.04 1023.35 1024.49 1025.36 1026.38 1027.09 1027.43 1027.97
1016.28 1016.76 1017.22 1017.65 1017.99 1018.23 1018.14 1017.83 1017.47 1017.56 1017.75 1016.21 1015.99 1015.88 1015.88 1016.16 1016.24 1016.79 1017.21 1017.72 1018.40 1019.49 1019.92 1020.00 1019.43 1019.26 1020.07 1020.80 1021.24 1021.39 1021.48 1021.46 1021.33 1021.30 1021.43 1021.77 1021.90 1022.35 1023.80 1024.88 1025.84 1026.58 1027.20 1027.89 1028.02
1015.66 1016.21 1016.82 1017.47 1018.27 1017.65 1017.61 1016.85 1017.37 1017.60 1017.76 1016.10 1015.70 1015.04 1015.49 1015.72 1016.61 1016.60 1016.76 1017.25 1018.43 1018.96 1020.04 1020.13 1019.35 1019.62 1020.06 1020.43 1020.76 1021.22 1020.90 1021.25 1021.70 1022.19 1022.35 1022.25 1022.46 1022.34 1023.42 1024.81 1025.90 1026.74 1027.43 1027.96 1028.21
1014.92 1015.54 1016.18 1016.71 1016.61 1016.98 1016.40 1016.45 1017.20 1017.60 1017.56 1014.89 1015.30 1015.37 1015.51 1015.96 1016.49 1017.02 1016.95 1017.09 1017.91 1018.76 1019.61 1019.09 1019.30 1019.61 1019.84 1019.77 1020.34 1020.72 1020.92 1021.60 1022.04 1022.54 1022.86 1023.00 1023.53 1022.06 1023.11 1024.10 1025.20 1026.71 1027.69 1028.27 1028.53
1014.05 1014.81 1015.61 1016.33 1016.48 1016.16 1016.25 1016.56 1017.31 1017.95 1015.54 1015.00 1015.12 1015.31 1015.92 1016.36 1016.75 1017.21 1017.31 1017.37 1017.93 1018.76 1019.18 1019.06 1018.89 1019.04 1018.97 1019.52 1019.89 1020.82 1021.44 1022.32 1023.01 1023.45 1023.53 1022.31 1022.73 1022.18 1022.43 1022.32 1024.02 1025.18 1026.00 1027.41 1028.31
1013.08 1013.96 1014.84 1014.99 1014.98 1015.73 1016.09 1016.52 1017.80 1016.18 1013.91 1014.82 1015.23 1015.54 1015.96 1016.67 1017.21 1017.14 1017.49 1017.72 1018.15 1019.12 1019.32 1019.11 1018.78 1018.55 1018.71 1019.59 1020.31 1020.71 1021.55 1022.99 1023.94 1024.08 1023.00 1022.38 1022.86 1021.15 1021.17 1022.18 1023.33 1024.59 1025.97 1027.02 1027.70
1011.89 1013.04 1013.58 1013.88 1014.48 1015.03 1016.11 1016.65 1015.74 1012.44 1013.38 1014.01 1014.48 1015.61 1016.11 1016.31 1017.19 1017.54 1017.77 1018.00 1017.96 1018.05 1018.78 1018.88 1018.62 1018.04 1018.07 1018.22 1019.12 1020.27 1020.56 1021.49 1022.53 1023.64 1023.18 1022.76 1021.89 1020.35 1020.95 1022.05 1023.07 1023.91 1025.16 1026.39 1027.44
1010.85 1011.67 1012.09 1012.78 1013.54 1014.12 1014.89 1014.13 1011.83 1011.19 1011.74 1013.29 1014.64 1015.30 1015.91 1016.04 1016.43 1017.47 1017.48 1017.23 1016.78 1016.91 1017.11 1017.67 1017.67 1017.38 1017.57 1017.78 1018.18 1019.88 1020.22 1020.24 1021.77 1023.77 1023.41 1021.64 1020.88 1020.39 1021.40 1022.32 1023.30 1024.14 1024.98 1025.75 1026.45
1008.89 1009.48 1009.68 1010.91 1012.44 1013.12 1012.84 1011.30 1010.55 1010.02 1010.78 1011.69 1012.35 1013.24 1014.27 1015.39 1016.17 1016.83 1016.65 1015.56 1015.65 1015.41 1015.20 1015.77 1017.00 1017.46 1017.69 1017.83 1018.34 1018.41 1018.75 1020.24 1021.15 1022.50 1022.45 1021.22 1020.71 1020.00 1020.97 1021.77 1023.25 1024.09 1024.47 1025.35 1026.04
1008.58 1008.15 1007.64 1009.25 1011.26 1010.70 1009.67 1009.37 1009.88 1009.71 1009.34 1010.54 1010.97 1011.76 1012.90 1013.89 1014.62 1015.40 1014.72 1014.59 1014.41 1014.86 1015.08 1015.37 1016.01 1017.88 1017.97 1017.68 1017.34 1018.48 1018.71 1019.47 1020.02 1020.71 1021.02 1021.02 1019.55 1018.45 1019.34 1020.40 1021.73 1022.78 1023.36 1024.08 1024.84
1007.26 1006.77 1006.65 1008.23 1008.88 1007.88 1007.74 1007.53 1009.07 1008.74 1009.25 1009.36 1009.63 1010.02 1011.15 1012.33 1013.25 1013.63 1013.27 1012.72 1012.63 1013.47 1014.59 1014.66 1015.27 1017.02 1017.15 1017.18 1017.21 1017.33 1017.51 1017.90 1019.08 1020.24 1020.50 1020.46 1018.55 1018.38 1018.97 1019.65 1020.48 1021.27 1022.31 1023.29 1024.28
1006.39 1006.76 1007.11 1006.58 1006.21 1006.68 1007.15 1007.30 1007.84 1008.19 1008.26 1008.50 1008.88 1009.03 1009.74 1010.86 1011.81 1011.69 1012.05 1011.87 1012.19 1012.70 1013.04 1013.94 1014.92 1016.47 1017.16 1017.59 1017.66 1017.47 1017.36 1017.42 1018.10 1018.97 1019.36 1020.16 1018.37 1018.97 1019.33 1019.89 1020.39 1020.95 1021.65 1022.41 1023.33
1006.12 1006.61 1006.60 1006.31 1005.98 1005.96 1006.56 1006.46 1006.80 1007.16 1007.50 1007.53 1007.72 1008.76 1009.28 1009.38 1009.91 1010.74 1011.55 1011.93 1012.15 1012.27 1012.50 1012.44 1013.62 1014.04 1013.99 1014.75 1015.44 1017.00 1016.89 1017.13 1017.21 1018.23 1018.21 1017.24 1017.87 1018.83 1019.33 1019.72 1020.44 1020.76 1021.19 1021.85 1022.60
1005.25 1005.67 1005.46 1005.80 1005.96 1006.02 1005.98 1005.65 1006.04 1006.37 1006.84 1007.08 1007.47 1007.09 1008.21 1009.09 1009.53 1010.07 1011.27 1011.96 1012.55 1012.57 1012.94 1012.46 1013.38 1014.10 1014.28 1014.42 1014.74 1015.23 1015.94 1016.55 1016.67 1016.33 1016.75 1016.33 1017.06 1017.56 1018.07 1018.68 1019.21 1019.75 1020.64 1021.33 1021.86
1005.27 1006.08 1006.20 1005.70 1005.31 1005.87 1006.02 1006.18 1005.96 1006.20 1006.73 1006.83 1006.77 1007.37 1007.90 1007.69 1007.97 1009.00 1010.18 1010.89 1011.27 1013.10 1013.26 1013.52 1013.75 1014.46 1015.21 1015.33 1015.30 1015.51 1015.24 1015.81 1016.13 1016.39 1016.21 1016.28 1016.43 1016.71 1017.14 1018.12 1019.15 1019.68 1020.30 1020.96 1021.40
1006.34 1006.41 1006.22 1006.01 1005.63 1005.76 1005.48 1005.68 1006.21 1006.86 1007.20 1007.42 1007.45 1008.09 1008.35 1008.48 1009.13 1009.47 1009.08 1009.76 1010.37 1011.44 1012.92 1013.95 1014.35 1015.10 1015.53 1016.36 1016.58 1016.35 1014.51 1015.57 1015.55 1015.75 1015.83 1016.28 1015.56 1017.21 1017.75 1018.26 1018.73 1019.46 1019.78 1020.21 1021.27
Thickness
5679 5681 5684 5686 5689 5691 5695 5698 5701 5703 5705 5708 5711 5715 5719 5722 5727 5728 5729 5734 5737 5739 5739 5738 5737 5733 5731 5720 5716 5709 5687 5674 5683 5679 5692 5697 5699 5703 5702 5702 5703 5702 5693 5682 5685
5675 5677 5680 5683 5685 5688 5691 5695 5697 5700 5704 5707 5711 5715 5718 5721 5723 5724 5730 5733 5735 5735 5734 5730 5725 5727 5713 5713 5707 5698 5680 5687 5692 5690 5692 5694 5697 5696 5696 5692 5695 5694 5685 5679 5681
5669 5672 5674 5677 5680 5683 5686 5691 5695 5697 5701 5705 5708 5712 5715 5718 5719 5722 5728 5730 5732 5732 5731 5727 5723 5720 5708 5708 5700 5692 5687 5692 5697 5696 5695 5691 5693 5693 5690 5685 5689 5686 5679 5672 5672
5663 5666 5669 5672 5675 5679 5682 5686 5691 5695 5698 5702 5706 5709 5713 5715 5699 5721 5725 5726 5726 5727 5725 5720 5714 5705 5696 5696 5696 5692 5692 5690 5696 5695 5691 5688 5690 5689 5687 5682 5674 5666 5662 5661 5662
5658 5661 5664 5668 5671 5674 5678 5681 5686 5691 5694 5698 5701 5705 5709 5704 5707 5719 5720 5721 5721 5721 5715 5711 5705 5698 5692 5691 5690 5687 5687 5687 5690 5689 5688 5684 5683 5684 5678 5664 5659 5656 5655 5653 5652
5654 5657 5659 5662 5666 5669 5672 5676 5680 5684 5689 5692 5696 5698 5699 5689 5712 5713 5715 5714 5714 5713 5708 5708 5700 5699 5688 5686 5684 5684 5682 5680 5682 5683 5684 5681 5677 5677 5665 5654 5650 5648 5643 5642 5644
5647 5651 5653 5655 5659 5663 5666 5670 5674 5677 5682 5686 5689 5691 5691 5693 5706 5706 5708 5706 5706 5706 5700 5702 5699 5695 5687 5678 5679 5677 5674 5672 5679 5679 5680 5675 5668 5667 5663 5651 5644 5639 5637 5637 5636
5641 5643 5646 5649 5652 5655 5659 5663 5667 5672 5675 5677 5680 5683 5681 5698 5699 5699 5699 5697 5698 5698 5696 5695 5695 5684 5679 5673 5664 5663 5657 5657 5676 5674 5674 5673 5664 5665 5655 5656 5642 5635 5631 5630 5628
5634 5637 5638 5642 5645 5648 5651 5655 5660 5663 5666 5668 5670 5673 5675 5690 5688 5690 5691 5687 5687 5687 5685 5685 5680 5666 5666 5652 5645 5640 5646 5646 5658 5668 5667 5666 5665 5660 5652 5649 5634 5626 5623 5623 5621
5627 5630 5632 5634 5637 5640 5643 5646 5650 5653 5656 5658 5661 5659 5673 5678 5681 5681 5681 5679 5675 5674 5670 5666 5653 5645 5640 5639 5632 5636 5636 5639 5646 5659 5657 5654 5656 5651 5647 5639 5624 5616 5612 5611 5611
5620 5622 5625 5625 5628 5631 5634 5636 5637 5639 5645 5658 5661 5665 5668 5669 5673 5671 5672 5668 5665 5658 5648 5646 5640 5642 5644 5644 5647 5639 5636 5641 5646 5649 5648 5643 5643 5655 5631 5619 5612 5607 5604 5601 5600
5614 5615 5616 5618 5619 5622 5624 5626 5635 5635 5636 5652 5653 5656 5663 5663 5657 5659 5662 5656 5651 5640 5635 5630 5631 5646 5642 5635 5638 5631 5628 5628 5633 5636 5635 5633 5634 5640 5625 5618 5612 5604 5599 5598 5592
5606 5607 5608 5609 5610 5613 5617 5620 5625 5627 5620 5643 5645 5648 5651 5653 5654 5649 5652 5646 5641 5627 5626 5625 5642 5640 5636 5625 5623 5619 5619 5619 5626 5624 5622 5621 5624 5627 5605 5599 5596 5593 5589 5583 5584
5598 5599 5599 5598 5599 5609 5611 5617 5615 5616 5598 5623 5638 5643 5644 5647 5641 5646 5648 5645 5633 5627 5615 5618 5633 5631 5625 5624 5620 5609 5619 5618 5615 5608 5603 5612 5604 5625 5606 5592 5586 5580 5575 5573 5572
5591 5591 5591 5593 5600 5602 5609 5608 5605 5604 5574 5629 5627 5636 5635 5636 5633 5633 5638 5637 5623 5621 5617 5623 5617 5618 5617 5622 5615 5614 5609 5605 5603 5597 5595 5597 5590 5611 5598 5603 5586 5569 5562 5558 5557
5581 5582 5582 5582 5589 5595 5595 5595 5591 5580 5580 5610 5614 5620 5622 5623 5623 5621 5624 5626 5621 5613 5612 5613 5616 5612 5617 5613 5611 5597 5597 5588 5573 5577 5570 5601 5598 5596 5605 5618 5587 5580 5572 5559 5552
5576 5573 5574 5579 5589 5583 5581 5581 5563 5571 5611 5601 5603 5606 5613 5609 5610 5614 5610 5607 5603 5591 5595 5603 5605 5609 5608 5598 5598 5596 5590 5573 5568 5563 5582 5577 5578 5605 5609 5596 5588 5577 5564 5554 5550
5573 5569 5571 5574 5575 5572 5564 5561 5562 5610 5599 5598 5597 5595 5600 5604 5601 5597 5592 5592 5595 5598 5579 5585 5592 5598 5603 5604 5595 5582 5589 5575 5569 5562 5572 5559 5576 5605 5587 5572 5567 5566 5558 5547 5537
5569 5566 5568 5570 5568 5562 5557 5559 5586 5601 5608 5594 5590 5584 5583 5592 5593 5586 5579 5584 5598 5593 5600 5581 5587 5597 5598 5597 5598 5581 5578 5587 5552 5476 5531 5575 5582 5592 5562 5558 5548 5547 5545 5541 5535
5574 5569 5571 5571 5565 5561 5556 5569 5591 5604 5595 5595 5600 5594 5580 5576 5581 5573 5572 5593 5596 5597 5602 5595 5587 5585 5585 5588 5584 5586 5586 5570 5550 5551 5539 5567 5572 5588 5565 5560 5537 5534 5539 5532 5521
5563 5566 5579 5572 5559 5559 5560 5575 5583 5593 5599 5588 5592 5588 5580 5572 5577 5565 5586 5592 5593 5586 5590 5586 5589 5571 5573 5577 5585 5575 5572 5562 5568 5556 5553 5538 5570 5571 5577 5560 5544 5537 5533 5527 5518
5559 5567 5573 5566 5559 5568 5568 5585 5579 5587 5586 5587 5590 5596 5586 5577 5572 5569 5583 5598 5594 5590 5581 5584 5575 5549 5567 5567 5567 5573 5574 5573 5563 5546 5522 5530 5575 5552 5556 5551 5544 5537 5528 5515 5507
5551 5556 5551 5561 5566 5564 5568 5574 5575 5576 5580 5585 5583 5588 5588 5577 5576 5578 5576 5590 5585 5587 5584 5579 5562 5535 5554 5558 5549 5553 5555 5554 5544 5524 5517 5531 5558 5533 5531 5530 5525 5521 5515 5507 5497
5536 5538 5539 5542 5546 5567 5564 5569 5570 5576 5576 5579 5582 5575 5573 5581 5584 5578 5571 5571 5570 5578 5580 5585 5558 5572 5590 5581 5565 5544 5544 5539 5554 5510 5539 5555 5561 5526 5525 5523 5509 5506 5501 5492 5486
5527 5530 5540 5543 5546 5547 5551 5562 5567 5566 5569 5573 5568 5582 5575 5566 5571 5576 5563 5553 5556 5562 5557 5567 5559 5544 5560 5566 5555 5555 5543 5528 5541 5554 5541 5561 5542 5542 5528 5518 5511 5502 5488 5479 5476
5511 5510 5513 5528 5542 5539 5537 5538 5552 5564 5553 5561 5569 5573 5572 5576 5580 5574 5565 5557 5565 5536 5539 5531 5543 5530 5521 5525 5529 5528 5537 5524 5530 5532 5530 5529 5523 5531 5520 5498 5491 5485 5476 5469 5463
5477 5486 5503 5512 5519 5528 5539 5543 5538 5540 5531 5536 5554 5550 5556 5564 5545 5537 5557 5555 5549 5544 5531 5518 5513 5519 5541 5485 5494 5510 5524 5515 5516 5507 5530 5508 5542 5489 5494 5487 5479 5469 5464 5459 5444